Home > Products > State Listing > West Virginia Data
Latest:
 RWRRLX |
  [top]

000
ASUS41 KRLX 251210
RWRRLX
West Virginia Regional Weather Roundup
National Weather Service Charleston WV
800 AM EDT SAT OCT 25 2014

Note: "fair" indicates few or no clouds below 12,000 feet with no
significant weather and/or obstructions to visibility.

WVZ003-251300-
Northern Panhandle of West Virginia

CITY           SKY/WX    TMP DP  RH WIND       PRES   REMARKS
WHEELING       CLOUDY    46  39  76 S8        29.97F
$$

WVZ009-251300-
Northwest West Virginia

CITY           SKY/WX    TMP DP  RH WIND       PRES   REMARKS
PARKERSBURG    CLEAR     40  38  93 CALM      30.05R
$$

WVZ006-251300-
Western West Virginia

CITY           SKY/WX    TMP DP  RH WIND       PRES   REMARKS
HUNTINGTON     CLEAR     42  41  96 S5        30.03F
$$

WVZ015-251300-
West Central West Virginia

CITY           SKY/WX    TMP DP  RH WIND       PRES   REMARKS
CHARLESTON     PTCLDY    36  35  96 CALM      30.05S
$$

WVZ022-031-251300-
North Central West Virginia

CITY           SKY/WX    TMP DP  RH WIND       PRES   REMARKS
CLARKSBURG     PTCLDY    43  39  86 S3        30.02R
MORGANTOWN     MOCLDY    49  39  68 CALM      30.02R
$$

WVZ025-035-042-045-251300-
Southern West Virginia

CITY           SKY/WX    TMP DP  RH WIND       PRES   REMARKS
BECKLEY        CLEAR     39  36  89 S5        30.06F
LOGAN          FOG       39  39 100 CALM      30.07R VSB<1/4
BLUEFIELD      CLEAR     40  35  83 W7        30.07S
LEWISBURG      CLEAR     32  32  98 CALM      30.06F
$$

WVZ047-251300-
Northern Mountains of West Virginia

CITY           SKY/WX    TMP DP  RH WIND       PRES   REMARKS
ELKINS         CLEAR     31  31 100 CALM      30.05S FOG
$$

WVZ052-251300-
Eastern Panhandle of West Virginia

CITY           SKY/WX    TMP DP  RH WIND       PRES   REMARKS
MARTINSBURG    CLEAR     47  36  65 CALM      29.96S
PETERSBURG     CLEAR     33  32  94 CALM      30.01S
$$




000
ASUS41 KRLX 251210
RWRRLX
West Virginia Regional Weather Roundup
National Weather Service Charleston WV
800 AM EDT SAT OCT 25 2014

Note: "fair" indicates few or no clouds below 12,000 feet with no
significant weather and/or obstructions to visibility.

WVZ003-251300-
Northern Panhandle of West Virginia

CITY           SKY/WX    TMP DP  RH WIND       PRES   REMARKS
WHEELING       CLOUDY    46  39  76 S8        29.97F
$$

WVZ009-251300-
Northwest West Virginia

CITY           SKY/WX    TMP DP  RH WIND       PRES   REMARKS
PARKERSBURG    CLEAR     40  38  93 CALM      30.05R
$$

WVZ006-251300-
Western West Virginia

CITY           SKY/WX    TMP DP  RH WIND       PRES   REMARKS
HUNTINGTON     CLEAR     42  41  96 S5        30.03F
$$

WVZ015-251300-
West Central West Virginia

CITY           SKY/WX    TMP DP  RH WIND       PRES   REMARKS
CHARLESTON     PTCLDY    36  35  96 CALM      30.05S
$$

WVZ022-031-251300-
North Central West Virginia

CITY           SKY/WX    TMP DP  RH WIND       PRES   REMARKS
CLARKSBURG     PTCLDY    43  39  86 S3        30.02R
MORGANTOWN     MOCLDY    49  39  68 CALM      30.02R
$$

WVZ025-035-042-045-251300-
Southern West Virginia

CITY           SKY/WX    TMP DP  RH WIND       PRES   REMARKS
BECKLEY        CLEAR     39  36  89 S5        30.06F
LOGAN          FOG       39  39 100 CALM      30.07R VSB<1/4
BLUEFIELD      CLEAR     40  35  83 W7        30.07S
LEWISBURG      CLEAR     32  32  98 CALM      30.06F
$$

WVZ047-251300-
Northern Mountains of West Virginia

CITY           SKY/WX    TMP DP  RH WIND       PRES   REMARKS
ELKINS         CLEAR     31  31 100 CALM      30.05S FOG
$$

WVZ052-251300-
Eastern Panhandle of West Virginia

CITY           SKY/WX    TMP DP  RH WIND       PRES   REMARKS
MARTINSBURG    CLEAR     47  36  65 CALM      29.96S
PETERSBURG     CLEAR     33  32  94 CALM      30.01S
$$




000
ASUS41 KRLX 251110
RWRRLX
West Virginia Regional Weather Roundup
National Weather Service Charleston WV
700 AM EDT SAT OCT 25 2014

Note: "fair" indicates few or no clouds below 12,000 feet with no
significant weather and/or obstructions to visibility.

WVZ003-251200-
Northern Panhandle of West Virginia

CITY           SKY/WX    TMP DP  RH WIND       PRES   REMARKS
WHEELING       PTCLDY    45  38  76 S6        29.98R
$$

WVZ009-251200-
Northwest West Virginia

CITY           SKY/WX    TMP DP  RH WIND       PRES   REMARKS
PARKERSBURG    CLEAR     40  36  86 CALM      30.04S
$$

WVZ006-251200-
Western West Virginia

CITY           SKY/WX    TMP DP  RH WIND       PRES   REMARKS
HUNTINGTON     CLEAR     42  41  96 S3        30.04S
$$

WVZ015-251200-
West Central West Virginia

CITY           SKY/WX    TMP DP  RH WIND       PRES   REMARKS
CHARLESTON     PTCLDY    37  36  96 CALM      30.05R
$$

WVZ022-031-251200-
North Central West Virginia

CITY           SKY/WX    TMP DP  RH WIND       PRES   REMARKS
CLARKSBURG     CLEAR     41  38  89 CALM      30.01S
MORGANTOWN     MOCLDY    49  39  68 SW6       30.01R
$$

WVZ025-035-042-045-251200-
Southern West Virginia

CITY           SKY/WX    TMP DP  RH WIND       PRES   REMARKS
BECKLEY        CLEAR     39  36  89 SW3       30.07R
LOGAN          FOG       39  39 100 CALM      30.06S VSB<1/4
BLUEFIELD      CLEAR     41  36  82 W8        30.07S
LEWISBURG      FOG       31  30  94 CALM      30.06R VSB 1/2
$$

WVZ047-251200-
Northern Mountains of West Virginia

CITY           SKY/WX    TMP DP  RH WIND       PRES   REMARKS
ELKINS         CLEAR     31  31 100 CALM      30.05S FOG
$$

WVZ052-251200-
Eastern Panhandle of West Virginia

CITY           SKY/WX    TMP DP  RH WIND       PRES   REMARKS
MARTINSBURG    CLEAR     49  36  61 SW7       29.96F
PETERSBURG     CLEAR     33  31  94 CALM      30.01S
$$




000
ASUS41 KRLX 251110
RWRRLX
West Virginia Regional Weather Roundup
National Weather Service Charleston WV
700 AM EDT SAT OCT 25 2014

Note: "fair" indicates few or no clouds below 12,000 feet with no
significant weather and/or obstructions to visibility.

WVZ003-251200-
Northern Panhandle of West Virginia

CITY           SKY/WX    TMP DP  RH WIND       PRES   REMARKS
WHEELING       PTCLDY    45  38  76 S6        29.98R
$$

WVZ009-251200-
Northwest West Virginia

CITY           SKY/WX    TMP DP  RH WIND       PRES   REMARKS
PARKERSBURG    CLEAR     40  36  86 CALM      30.04S
$$

WVZ006-251200-
Western West Virginia

CITY           SKY/WX    TMP DP  RH WIND       PRES   REMARKS
HUNTINGTON     CLEAR     42  41  96 S3        30.04S
$$

WVZ015-251200-
West Central West Virginia

CITY           SKY/WX    TMP DP  RH WIND       PRES   REMARKS
CHARLESTON     PTCLDY    37  36  96 CALM      30.05R
$$

WVZ022-031-251200-
North Central West Virginia

CITY           SKY/WX    TMP DP  RH WIND       PRES   REMARKS
CLARKSBURG     CLEAR     41  38  89 CALM      30.01S
MORGANTOWN     MOCLDY    49  39  68 SW6       30.01R
$$

WVZ025-035-042-045-251200-
Southern West Virginia

CITY           SKY/WX    TMP DP  RH WIND       PRES   REMARKS
BECKLEY        CLEAR     39  36  89 SW3       30.07R
LOGAN          FOG       39  39 100 CALM      30.06S VSB<1/4
BLUEFIELD      CLEAR     41  36  82 W8        30.07S
LEWISBURG      FOG       31  30  94 CALM      30.06R VSB 1/2
$$

WVZ047-251200-
Northern Mountains of West Virginia

CITY           SKY/WX    TMP DP  RH WIND       PRES   REMARKS
ELKINS         CLEAR     31  31 100 CALM      30.05S FOG
$$

WVZ052-251200-
Eastern Panhandle of West Virginia

CITY           SKY/WX    TMP DP  RH WIND       PRES   REMARKS
MARTINSBURG    CLEAR     49  36  61 SW7       29.96F
PETERSBURG     CLEAR     33  31  94 CALM      30.01S
$$




000
ASUS41 KRLX 251010
RWRRLX
West Virginia Regional Weather Roundup
National Weather Service Charleston WV
600 AM EDT SAT OCT 25 2014

Note: "fair" indicates few or no clouds below 12,000 feet with no
significant weather and/or obstructions to visibility.

WVZ003-251100-
Northern Panhandle of West Virginia

CITY           SKY/WX    TMP DP  RH WIND       PRES   REMARKS
WHEELING       CLEAR     46  39  76 S6        29.97S
$$

WVZ009-251100-
Northwest West Virginia

CITY           SKY/WX    TMP DP  RH WIND       PRES   REMARKS
PARKERSBURG    CLEAR     39  36  89 CALM      30.04R
$$

WVZ006-251100-
Western West Virginia

CITY           SKY/WX    TMP DP  RH WIND       PRES   REMARKS
HUNTINGTON     CLEAR     43  41  93 S7        30.04R
$$

WVZ015-251100-
West Central West Virginia

CITY           SKY/WX    TMP DP  RH WIND       PRES   REMARKS
CHARLESTON     PTCLDY    36  35  96 CALM      30.04S
$$

WVZ022-031-251100-
North Central West Virginia

CITY           SKY/WX    TMP DP  RH WIND       PRES   REMARKS
CLARKSBURG     CLEAR     41  38  89 CALM      30.01F
MORGANTOWN     MOCLDY    50  39  66 SW3       30.00F
$$

WVZ025-035-042-045-251100-
Southern West Virginia

CITY           SKY/WX    TMP DP  RH WIND       PRES   REMARKS
BECKLEY        CLEAR     38  35  89 S5        30.05S
LOGAN          FOG       39  39 100 CALM      30.06R VSB<1/4
BLUEFIELD      CLEAR     42  36  79 W7        30.07S
LEWISBURG      CLEAR     34  32  93 CALM      30.05S
$$

WVZ047-251100-
Northern Mountains of West Virginia

CITY           SKY/WX    TMP DP  RH WIND       PRES   REMARKS
ELKINS         CLEAR     32  32 100 CALM      30.05F FOG
$$

WVZ052-251100-
Eastern Panhandle of West Virginia

CITY           SKY/WX    TMP DP  RH WIND       PRES   REMARKS
MARTINSBURG    CLEAR     44  36  73 SW5       29.97R
PETERSBURG     PTCLDY    32  31  95 CALM      30.01F
$$




000
ASUS41 KRLX 250910
RWRRLX
West Virginia Regional Weather Roundup
National Weather Service Charleston WV
500 AM EDT SAT OCT 25 2014

Note: "fair" indicates few or no clouds below 12,000 feet with no
significant weather and/or obstructions to visibility.

WVZ003-251000-
Northern Panhandle of West Virginia

CITY           SKY/WX    TMP DP  RH WIND       PRES   REMARKS
WHEELING       CLEAR     46  39  76 S8        29.97F
$$

WVZ009-251000-
Northwest West Virginia

CITY           SKY/WX    TMP DP  RH WIND       PRES   REMARKS
PARKERSBURG    CLEAR     38  35  89 SE3       30.03F
$$

WVZ006-251000-
Western West Virginia

CITY           SKY/WX    TMP DP  RH WIND       PRES   REMARKS
HUNTINGTON     CLEAR     42  41  96 S6        30.03F
$$

WVZ015-251000-
West Central West Virginia

CITY           SKY/WX    TMP DP  RH WIND       PRES   REMARKS
CHARLESTON     PTCLDY    38  36  92 CALM      30.04S FOG
$$

WVZ022-031-251000-
North Central West Virginia

CITY           SKY/WX    TMP DP  RH WIND       PRES   REMARKS
CLARKSBURG     PTCLDY    43  39  86 S3        30.02F
MORGANTOWN     CLOUDY    50  39  66 SW3       30.01F
$$

WVZ025-035-042-045-251000-
Southern West Virginia

CITY           SKY/WX    TMP DP  RH WIND       PRES   REMARKS
BECKLEY        CLEAR     39  36  89 S7        30.05S
LOGAN          FOG       39  39 100 CALM      30.05S VSB<1/4
BLUEFIELD      CLEAR     40  35  83 W8        30.07S
LEWISBURG      CLEAR     35  33  93 CALM      30.05S
$$

WVZ047-251000-
Northern Mountains of West Virginia

CITY           SKY/WX    TMP DP  RH WIND       PRES   REMARKS
ELKINS         MOCLDY    31  31 100 CALM      30.06R
$$

WVZ052-251000-
Eastern Panhandle of West Virginia

CITY           SKY/WX    TMP DP  RH WIND       PRES   REMARKS
MARTINSBURG    CLEAR     42  35  76 S3        29.96F
PETERSBURG     CLEAR     32  31  95 CALM      30.01S
$$




000
ASUS41 KRLX 250810
RWRRLX
West Virginia Regional Weather Roundup
National Weather Service Charleston WV
400 AM EDT SAT OCT 25 2014

Note: "fair" indicates few or no clouds below 12,000 feet with no
significant weather and/or obstructions to visibility.

WVZ003-250900-
Northern Panhandle of West Virginia

CITY           SKY/WX    TMP DP  RH WIND       PRES   REMARKS
WHEELING       MOCLDY    48  40  73 S7        29.99F
$$

WVZ009-250900-
Northwest West Virginia

CITY           SKY/WX    TMP DP  RH WIND       PRES   REMARKS
PARKERSBURG    CLEAR     40  37  89 CALM      30.05F
$$

WVZ006-250900-
Western West Virginia

CITY           SKY/WX    TMP DP  RH WIND       PRES   REMARKS
HUNTINGTON     CLEAR     43  42  97 SW5       30.04F
$$

WVZ015-250900-
West Central West Virginia

CITY           SKY/WX    TMP DP  RH WIND       PRES   REMARKS
CHARLESTON     CLEAR     38  37  97 CALM      30.04F FOG
$$

WVZ022-031-250900-
North Central West Virginia

CITY           SKY/WX    TMP DP  RH WIND       PRES   REMARKS
CLARKSBURG     CLOUDY    44  42  93 CALM      30.03S
MORGANTOWN     CLOUDY    50  38  63 SW5       30.02F
$$

WVZ025-035-042-045-250900-
Southern West Virginia

CITY           SKY/WX    TMP DP  RH WIND       PRES   REMARKS
BECKLEY        CLEAR     38  35  89 S5        30.05F
LOGAN          FOG       39  39 100 CALM      30.05F VSB<1/4
BLUEFIELD      CLEAR     41  36  82 W8        30.07F
LEWISBURG      CLEAR     34  32  93 CALM      30.05F
$$

WVZ047-250900-
Northern Mountains of West Virginia

CITY           SKY/WX    TMP DP  RH WIND       PRES   REMARKS
ELKINS         CLEAR     32  32 100 CALM      30.05F FOG
$$

WVZ052-250900-
Eastern Panhandle of West Virginia

CITY           SKY/WX    TMP DP  RH WIND       PRES   REMARKS
MARTINSBURG    CLEAR     42  35  76 CALM      29.97F
PETERSBURG     CLEAR     35  33  93 CALM      30.02F
$$




000
ASUS41 KRLX 250710
RWRRLX
West Virginia Regional Weather Roundup
National Weather Service Charleston WV
300 AM EDT SAT OCT 25 2014

Note: "fair" indicates few or no clouds below 12,000 feet with no
significant weather and/or obstructions to visibility.

WVZ003-250800-
Northern Panhandle of West Virginia

CITY           SKY/WX    TMP DP  RH WIND       PRES   REMARKS
WHEELING       CLOUDY    47  40  76 S5        30.00S
$$

WVZ009-250800-
Northwest West Virginia

CITY           SKY/WX    TMP DP  RH WIND       PRES   REMARKS
PARKERSBURG    PTCLDY    39  36  89 CALM      30.06R
$$

WVZ006-250800-
Western West Virginia

CITY           SKY/WX    TMP DP  RH WIND       PRES   REMARKS
HUNTINGTON     PTCLDY    42  41  96 S3        30.05R
$$

WVZ015-250800-
West Central West Virginia

CITY           SKY/WX    TMP DP  RH WIND       PRES   REMARKS
CHARLESTON     CLEAR     39  38  96 CALM      30.05F
$$

WVZ022-031-250800-
North Central West Virginia

CITY           SKY/WX    TMP DP  RH WIND       PRES   REMARKS
CLARKSBURG     CLEAR     42  38  85 S3        30.03F
MORGANTOWN     CLOUDY    47  39  74 S5        30.03S
$$

WVZ025-035-042-045-250800-
Southern West Virginia

CITY           SKY/WX    TMP DP  RH WIND       PRES   REMARKS
BECKLEY        CLEAR     39  35  86 SE3       30.06F
LOGAN          FOG       43  43 100 CALM      30.06F VSB<1/4
BLUEFIELD      CLEAR     41  36  82 W7        30.08S
LEWISBURG      CLEAR     37  35  93 CALM      30.06S
$$

WVZ047-250800-
Northern Mountains of West Virginia

CITY           SKY/WX    TMP DP  RH WIND       PRES   REMARKS
ELKINS         CLEAR     32  32 100 CALM      30.08S
$$

WVZ052-250800-
Eastern Panhandle of West Virginia

CITY           SKY/WX    TMP DP  RH WIND       PRES   REMARKS
MARTINSBURG    CLEAR     49  35  58 CALM      29.98R
PETERSBURG     CLEAR     35  33  93 CALM      30.03S
$$




000
ASUS41 KRLX 250610
RWRRLX
West Virginia Regional Weather Roundup
National Weather Service Charleston WV
200 AM EDT SAT OCT 25 2014

Note: "fair" indicates few or no clouds below 12,000 feet with no
significant weather and/or obstructions to visibility.

WVZ003-250700-
Northern Panhandle of West Virginia

CITY           SKY/WX    TMP DP  RH WIND       PRES   REMARKS
WHEELING       CLEAR     47  39  74 S6        30.00F
$$

WVZ009-250700-
Northwest West Virginia

CITY           SKY/WX    TMP DP  RH WIND       PRES   REMARKS
PARKERSBURG    CLEAR     41  38  89 CALM      30.05F
$$

WVZ006-250700-
Western West Virginia

CITY           SKY/WX    TMP DP  RH WIND       PRES   REMARKS
HUNTINGTON     CLEAR     41  41 100 CALM      30.04F
$$

WVZ015-250700-
West Central West Virginia

CITY           SKY/WX    TMP DP  RH WIND       PRES   REMARKS
CHARLESTON     CLEAR     40  38  93 CALM      30.06S
$$

WVZ022-031-250700-
North Central West Virginia

CITY           SKY/WX    TMP DP  RH WIND       PRES   REMARKS
CLARKSBURG     PTCLDY    39  37  92 CALM      30.05S
MORGANTOWN     CLOUDY    43  38  82 S5        30.03F
$$

WVZ025-035-042-045-250700-
Southern West Virginia

CITY           SKY/WX    TMP DP  RH WIND       PRES   REMARKS
BECKLEY        CLEAR     40  36  86 CALM      30.07S
LOGAN            N/A     43  43 100 CALM      30.07S FOG
BLUEFIELD      CLEAR     43  37  79 W7        30.08S
LEWISBURG      CLEAR     38  35  90 CALM      30.06S
$$

WVZ047-250700-
Northern Mountains of West Virginia

CITY           SKY/WX    TMP DP  RH WIND       PRES   REMARKS
ELKINS         CLEAR     33  33 100 CALM      30.08S FOG
$$

WVZ052-250700-
Eastern Panhandle of West Virginia

CITY           SKY/WX    TMP DP  RH WIND       PRES   REMARKS
MARTINSBURG    CLEAR     47  36  65 S3        29.97F
PETERSBURG     CLEAR     35  33  92 CALM      30.03S
$$




000
ASUS41 KRLX 250510
RWRRLX
West Virginia Regional Weather Roundup
National Weather Service Charleston WV
100 AM EDT SAT OCT 25 2014

Note: "fair" indicates few or no clouds below 12,000 feet with no
significant weather and/or obstructions to visibility.

WVZ003-250600-
Northern Panhandle of West Virginia

CITY           SKY/WX    TMP DP  RH WIND       PRES   REMARKS
WHEELING       PTCLDY    48  39  71 S7        30.01F
$$

WVZ009-250600-
Northwest West Virginia

CITY           SKY/WX    TMP DP  RH WIND       PRES   REMARKS
PARKERSBURG    CLEAR     41  38  89 CALM      30.06S
$$

WVZ006-250600-
Western West Virginia

CITY           SKY/WX    TMP DP  RH WIND       PRES   REMARKS
HUNTINGTON     CLEAR     43  42  97 S3        30.05S
$$

WVZ015-250600-
West Central West Virginia

CITY           SKY/WX    TMP DP  RH WIND       PRES   REMARKS
CHARLESTON       N/A     41  40  96 CALM      30.06S
$$

WVZ022-031-250600-
North Central West Virginia

CITY           SKY/WX    TMP DP  RH WIND       PRES   REMARKS
CLARKSBURG     CLEAR     39  37  92 CALM      30.05S
MORGANTOWN     CLEAR     46  38  73 CALM      30.04F
$$

WVZ025-035-042-045-250600-
Southern West Virginia

CITY           SKY/WX    TMP DP  RH WIND       PRES   REMARKS
BECKLEY        CLEAR     39  35  86 S3        30.07F
LOGAN            N/A     45  43  93 CALM      30.06F FOG
BLUEFIELD      CLEAR     42  36  79 W7        30.08F
LEWISBURG      CLEAR     40  37  91 CALM      30.06S
$$

WVZ047-250600-
Northern Mountains of West Virginia

CITY           SKY/WX    TMP DP  RH WIND       PRES   REMARKS
ELKINS         CLEAR     33  33 100 CALM      30.08S FOG
$$

WVZ052-250600-
Eastern Panhandle of West Virginia

CITY           SKY/WX    TMP DP  RH WIND       PRES   REMARKS
MARTINSBURG    CLEAR     47  35  63 CALM      29.98F
PETERSBURG     CLEAR     36  34  92 CALM      30.03S
$$




000
ASUS41 KRLX 250410
RWRRLX
West Virginia Regional Weather Roundup
National Weather Service Charleston WV
1200 AM EDT SAT OCT 25 2014

Note: "fair" indicates few or no clouds below 12,000 feet with no
significant weather and/or obstructions to visibility.

WVZ003-250500-
Northern Panhandle of West Virginia

CITY           SKY/WX    TMP DP  RH WIND       PRES   REMARKS
WHEELING       CLOUDY    48  39  71 CALM      30.02S
$$

WVZ009-250500-
Northwest West Virginia

CITY           SKY/WX    TMP DP  RH WIND       PRES   REMARKS
PARKERSBURG    CLEAR     42  39  89 CALM      30.06F
$$

WVZ006-250500-
Western West Virginia

CITY           SKY/WX    TMP DP  RH WIND       PRES   REMARKS
HUNTINGTON     CLEAR     45  42  89 SW5       30.05S
$$

WVZ015-250500-
West Central West Virginia

CITY           SKY/WX    TMP DP  RH WIND       PRES   REMARKS
CHARLESTON     CLEAR     43  41  93 SE3       30.06F
$$

WVZ022-031-250500-
North Central West Virginia

CITY           SKY/WX    TMP DP  RH WIND       PRES   REMARKS
CLARKSBURG     CLEAR     42  39  89 CALM      30.05S
MORGANTOWN     CLEAR     49  38  65 SW3       30.05S
$$

WVZ025-035-042-045-250500-
Southern West Virginia

CITY           SKY/WX    TMP DP  RH WIND       PRES   REMARKS
BECKLEY        CLEAR     39  35  86 SW5       30.08S
LOGAN            N/A     45  45 100 CALM      30.07F
BLUEFIELD      CLEAR     44  36  73 W8        30.09R
LEWISBURG      CLEAR     42  38  86 CALM      30.07S
$$

WVZ047-250500-
Northern Mountains of West Virginia

CITY           SKY/WX    TMP DP  RH WIND       PRES   REMARKS
ELKINS         CLEAR     34  34 100 CALM      30.08F
$$

WVZ052-250500-
Eastern Panhandle of West Virginia

CITY           SKY/WX    TMP DP  RH WIND       PRES   REMARKS
MARTINSBURG    CLEAR     50  35  56 CALM      29.99S
PETERSBURG     CLEAR     38  36  91 CALM      30.04F
$$




000
ASUS41 KRLX 250410
RWRRLX
West Virginia Regional Weather Roundup
National Weather Service Charleston WV
1200 AM EDT SAT OCT 25 2014

Note: "fair" indicates few or no clouds below 12,000 feet with no
significant weather and/or obstructions to visibility.

WVZ003-250500-
Northern Panhandle of West Virginia

CITY           SKY/WX    TMP DP  RH WIND       PRES   REMARKS
WHEELING       CLOUDY    48  39  71 CALM      30.02S
$$

WVZ009-250500-
Northwest West Virginia

CITY           SKY/WX    TMP DP  RH WIND       PRES   REMARKS
PARKERSBURG    CLEAR     42  39  89 CALM      30.06F
$$

WVZ006-250500-
Western West Virginia

CITY           SKY/WX    TMP DP  RH WIND       PRES   REMARKS
HUNTINGTON     CLEAR     45  42  89 SW5       30.05S
$$

WVZ015-250500-
West Central West Virginia

CITY           SKY/WX    TMP DP  RH WIND       PRES   REMARKS
CHARLESTON     CLEAR     43  41  93 SE3       30.06F
$$

WVZ022-031-250500-
North Central West Virginia

CITY           SKY/WX    TMP DP  RH WIND       PRES   REMARKS
CLARKSBURG     CLEAR     42  39  89 CALM      30.05S
MORGANTOWN     CLEAR     49  38  65 SW3       30.05S
$$

WVZ025-035-042-045-250500-
Southern West Virginia

CITY           SKY/WX    TMP DP  RH WIND       PRES   REMARKS
BECKLEY        CLEAR     39  35  86 SW5       30.08S
LOGAN            N/A     45  45 100 CALM      30.07F
BLUEFIELD      CLEAR     44  36  73 W8        30.09R
LEWISBURG      CLEAR     42  38  86 CALM      30.07S
$$

WVZ047-250500-
Northern Mountains of West Virginia

CITY           SKY/WX    TMP DP  RH WIND       PRES   REMARKS
ELKINS         CLEAR     34  34 100 CALM      30.08F
$$

WVZ052-250500-
Eastern Panhandle of West Virginia

CITY           SKY/WX    TMP DP  RH WIND       PRES   REMARKS
MARTINSBURG    CLEAR     50  35  56 CALM      29.99S
PETERSBURG     CLEAR     38  36  91 CALM      30.04F
$$




000
ASUS41 KRLX 250310
RWRRLX
West Virginia Regional Weather Roundup
National Weather Service Charleston WV
1100 PM EDT FRI OCT 24 2014

Note: "fair" indicates few or no clouds below 12,000 feet with no
significant weather and/or obstructions to visibility.

WVZ003-250400-
Northern Panhandle of West Virginia

CITY           SKY/WX    TMP DP  RH WIND       PRES   REMARKS
WHEELING       CLEAR     49  38  65 S6        30.02S
$$

WVZ009-250400-
Northwest West Virginia

CITY           SKY/WX    TMP DP  RH WIND       PRES   REMARKS
PARKERSBURG    CLEAR     44  40  85 CALM      30.07S
$$

WVZ006-250400-
Western West Virginia

CITY           SKY/WX    TMP DP  RH WIND       PRES   REMARKS
HUNTINGTON     CLEAR     44  42  93 CALM      30.05S
$$

WVZ015-250400-
West Central West Virginia

CITY           SKY/WX    TMP DP  RH WIND       PRES   REMARKS
CHARLESTON     CLEAR     46  42  86 CALM      30.07R
$$

WVZ022-031-250400-
North Central West Virginia

CITY           SKY/WX    TMP DP  RH WIND       PRES   REMARKS
CLARKSBURG     CLEAR     43  40  89 CALM      30.05S
MORGANTOWN     CLEAR     44  38  79 S5        30.05S
$$

WVZ025-035-042-045-250400-
Southern West Virginia

CITY           SKY/WX    TMP DP  RH WIND       PRES   REMARKS
BECKLEY        CLEAR     41  36  82 CALM      30.08S
LOGAN            N/A     46  45  93 CALM      30.07S
BLUEFIELD      CLEAR     45  36  70 W8        30.08F
LEWISBURG        N/A     40  36  84 CALM      30.07R
$$

WVZ047-250400-
Northern Mountains of West Virginia

CITY           SKY/WX    TMP DP  RH WIND       PRES   REMARKS
ELKINS         CLEAR     35  35 100 CALM      30.09R
$$

WVZ052-250400-
Eastern Panhandle of West Virginia

CITY           SKY/WX    TMP DP  RH WIND       PRES   REMARKS
MARTINSBURG    PTCLDY    51  35  54 CALM      29.99R
PETERSBURG     CLEAR     39  35  83 CALM      30.04R
$$




000
ASUS41 KRLX 250210
RWRRLX
West Virginia Regional Weather Roundup
National Weather Service Charleston WV
1000 PM EDT FRI OCT 24 2014

Note: "fair" indicates few or no clouds below 12,000 feet with no
significant weather and/or obstructions to visibility.

WVZ003-250300-
Northern Panhandle of West Virginia

CITY           SKY/WX    TMP DP  RH WIND       PRES   REMARKS
WHEELING       CLEAR     52  38  58 SW5       30.02S
$$

WVZ009-250300-
Northwest West Virginia

CITY           SKY/WX    TMP DP  RH WIND       PRES   REMARKS
PARKERSBURG    CLEAR     46  41  82 CALM      30.07R
$$

WVZ006-250300-
Western West Virginia

CITY           SKY/WX    TMP DP  RH WIND       PRES   REMARKS
HUNTINGTON     CLEAR     48  42  80 CALM      30.05S
$$

WVZ015-250300-
West Central West Virginia

CITY           SKY/WX    TMP DP  RH WIND       PRES   REMARKS
CHARLESTON     CLEAR     46  42  86 CALM      30.06R
$$

WVZ022-031-250300-
North Central West Virginia

CITY           SKY/WX    TMP DP  RH WIND       PRES   REMARKS
CLARKSBURG     CLEAR     44  39  82 CALM      30.05R
MORGANTOWN     CLEAR     47  38  71 CALM      30.05R
$$

WVZ025-035-042-045-250300-
Southern West Virginia

CITY           SKY/WX    TMP DP  RH WIND       PRES   REMARKS
BECKLEY        CLEAR     41  36  82 S3        30.08R
LOGAN            N/A     48  43  81 CALM      30.07R
BLUEFIELD      CLEAR     45  36  70 W6        30.09R
LEWISBURG      CLEAR     42  36  78 CALM      30.06S
$$

WVZ047-250300-
Northern Mountains of West Virginia

CITY           SKY/WX    TMP DP  RH WIND       PRES   REMARKS
ELKINS         CLEAR     38  37  97 CALM      30.07R
$$

WVZ052-250300-
Eastern Panhandle of West Virginia

CITY           SKY/WX    TMP DP  RH WIND       PRES   REMARKS
MARTINSBURG    PTCLDY    55  35  47 CALM      29.98R
PETERSBURG     CLEAR     42  35  77 CALM      30.03R
$$




000
ASUS41 KRLX 250110
RWRRLX
West Virginia Regional Weather Roundup
National Weather Service Charleston WV
900 PM EDT FRI OCT 24 2014

Note: "fair" indicates few or no clouds below 12,000 feet with no
significant weather and/or obstructions to visibility.

WVZ003-250200-
Northern Panhandle of West Virginia

CITY           SKY/WX    TMP DP  RH WIND       PRES   REMARKS
WHEELING       CLEAR     53  38  56 SW5       30.02S
$$

WVZ009-250200-
Northwest West Virginia

CITY           SKY/WX    TMP DP  RH WIND       PRES   REMARKS
PARKERSBURG    CLEAR     48  41  76 CALM      30.06R
$$

WVZ006-250200-
Western West Virginia

CITY           SKY/WX    TMP DP  RH WIND       PRES   REMARKS
HUNTINGTON     CLEAR     51  41  68 SW3       30.05R
$$

WVZ015-250200-
West Central West Virginia

CITY           SKY/WX    TMP DP  RH WIND       PRES   REMARKS
CHARLESTON     CLEAR     47  42  83 SE5       30.05S
$$

WVZ022-031-250200-
North Central West Virginia

CITY           SKY/WX    TMP DP  RH WIND       PRES   REMARKS
CLARKSBURG     CLEAR     47  40  76 CALM      30.04R
MORGANTOWN     CLEAR     48  38  68 S5        30.04S
$$

WVZ025-035-042-045-250200-
Southern West Virginia

CITY           SKY/WX    TMP DP  RH WIND       PRES   REMARKS
BECKLEY        CLEAR     45  36  70 CALM      30.07S
LOGAN            N/A     50  45  81 CALM      30.06F
BLUEFIELD      CLEAR     47  36  65 W8        30.08S
LEWISBURG      CLEAR     46  37  70 CALM      30.05S
$$

WVZ047-250200-
Northern Mountains of West Virginia

CITY           SKY/WX    TMP DP  RH WIND       PRES   REMARKS
ELKINS         CLEAR     41  38  89 CALM      30.06R
$$

WVZ052-250200-
Eastern Panhandle of West Virginia

CITY           SKY/WX    TMP DP  RH WIND       PRES   REMARKS
MARTINSBURG    MOCLDY    57  35  43 NW8       29.97S
PETERSBURG       N/A     45  37  72 CALM      30.02R
$$




    US Dept of Commerce
    National Oceanic and Atmospheric Administration
    National Weather Service
    1325 East West Highway
    Silver Spring, MD 20910
    Page Author: NWS Internet Services Team
Disclaimer
Information Quality
Credits
Glossary
Privacy Policy
Freedom of Information Act (FOIA)
About Us
Career Opportunities